iso_date,epoch_date,Year,Hour,Min,DOY,POS_DOY,Lat,Lon,BP,Ts,Ta,has_bp,has_ts,has_ta,BuoyID,Buoy_Type,Buoy_Owner,Logistics,Hemisphere
2020-07-16T00:09:56Z,1594858196,2020,0,10,198.0069,198.0069,78.62375,1.23707,-999.00,-999.00,-999.0,no,no,no,300534060558640,NOMAD,AWI/USIABP,MOSAiC,North
2020-07-16T00:20:00Z,1594858801,2020,0,20,198.0139,198.0139,78.62179,1.23897,-999.00,-999.00,-999.0,no,no,no,300534060558640,NOMAD,AWI/USIABP,MOSAiC,North
2020-07-16T00:29:57Z,1594859397,2020,0,30,198.0208,198.0208,78.61981,1.24071,-999.00,-999.00,-999.0,no,no,no,300534060558640,NOMAD,AWI/USIABP,MOSAiC,North
2020-07-16T00:40:01Z,1594860002,2020,0,40,198.0278,198.0278,78.61791,1.24259,-999.00,-999.00,-999.0,no,no,no,300534060558640,NOMAD,AWI/USIABP,MOSAiC,North
2020-07-16T00:49:58Z,1594860598,2020,0,50,198.0347,198.0347,78.61597,1.24371,-999.00,-999.00,-999.0,no,no,no,300534060558640,NOMAD,AWI/USIABP,MOSAiC,North
2020-07-16T01:00:02Z,1594861203,2020,1,0,198.0417,198.0417,78.61406,1.24522,-999.00,-999.00,-999.0,no,no,no,300534060558640,NOMAD,AWI/USIABP,MOSAiC,North
2020-07-16T01:09:59Z,1594861799,2020,1,10,198.0486,198.0486,78.61227,1.24721,-999.00,-999.00,-999.0,no,no,no,300534060558640,NOMAD,AWI/USIABP,MOSAiC,North
2020-07-16T01:20:03Z,1594862404,2020,1,20,198.0556,198.0556,78.61038,1.24983,-999.00,-999.00,-999.0,no,no,no,300534060558640,NOMAD,AWI/USIABP,MOSAiC,North
2020-07-16T01:30:00Z,1594863000,2020,1,30,198.0625,198.0625,78.60849,1.25216,-999.00,-999.00,-999.0,no,no,no,300534060558640,NOMAD,AWI/USIABP,MOSAiC,North
2020-07-16T01:39:56Z,1594863596,2020,1,40,198.0694,198.0694,78.60662,1.25456,-999.00,-999.00,-999.0,no,no,no,300534060558640,NOMAD,AWI/USIABP,MOSAiC,North
2020-07-16T01:50:00Z,1594864201,2020,1,50,198.0764,198.0764,78.60492,1.25703,-999.00,-999.00,-999.0,no,no,no,300534060558640,NOMAD,AWI/USIABP,MOSAiC,North
2020-07-16T01:59:57Z,1594864797,2020,2,0,198.0833,198.0833,78.60325,1.2597,-999.00,-999.00,-999.0,no,no,no,300534060558640,NOMAD,AWI/USIABP,MOSAiC,North
2020-07-16T02:10:01Z,1594865402,2020,2,10,198.0903,198.0903,78.60152,1.26279,-999.00,-999.00,-999.0,no,no,no,300534060558640,NOMAD,AWI/USIABP,MOSAiC,North
2020-07-16T02:19:58Z,1594865998,2020,2,20,198.0972,198.0972,78.5997,1.26528,-999.00,-999.00,-999.0,no,no,no,300534060558640,NOMAD,AWI/USIABP,MOSAiC,North
2020-07-16T02:30:02Z,1594866603,2020,2,30,198.1042,198.1042,78.59783,1.26759,-999.00,-999.00,-999.0,no,no,no,300534060558640,NOMAD,AWI/USIABP,MOSAiC,North
2020-07-16T02:39:59Z,1594867199,2020,2,40,198.1111,198.1111,78.59583,1.27043,-999.00,-999.00,-999.0,no,no,no,300534060558640,NOMAD,AWI/USIABP,MOSAiC,North
2020-07-16T02:50:03Z,1594867804,2020,2,50,198.1181,198.1181,78.59392,1.27302,-999.00,-999.00,-999.0,no,no,no,300534060558640,NOMAD,AWI/USIABP,MOSAiC,North
2020-07-16T03:00:00Z,1594868400,2020,3,0,198.125,198.125,78.59194,1.27634,-999.00,-999.00,-999.0,no,no,no,300534060558640,NOMAD,AWI/USIABP,MOSAiC,North
2020-07-16T03:09:56Z,1594868996,2020,3,10,198.1319,198.1319,78.59001,1.27948,-999.00,-999.00,-999.0,no,no,no,300534060558640,NOMAD,AWI/USIABP,MOSAiC,North
2020-07-16T03:20:00Z,1594869601,2020,3,20,198.1389,198.1389,78.58818,1.2829,-999.00,-999.00,-999.0,no,no,no,300534060558640,NOMAD,AWI/USIABP,MOSAiC,North
2020-07-16T03:29:57Z,1594870197,2020,3,30,198.1458,198.1458,78.58635,1.28622,-999.00,-999.00,-999.0,no,no,no,300534060558640,NOMAD,AWI/USIABP,MOSAiC,North
2020-07-16T03:40:01Z,1594870802,2020,3,40,198.1528,198.1528,78.58433,1.2893,-999.00,-999.00,-999.0,no,no,no,300534060558640,NOMAD,AWI/USIABP,MOSAiC,North
2020-07-16T03:49:58Z,1594871398,2020,3,50,198.1597,198.1597,78.58228,1.29253,-999.00,-999.00,-999.0,no,no,no,300534060558640,NOMAD,AWI/USIABP,MOSAiC,North
2020-07-16T04:00:02Z,1594872003,2020,4,0,198.1667,198.1667,78.58027,1.29637,-999.00,-999.00,-999.0,no,no,no,300534060558640,NOMAD,AWI/USIABP,MOSAiC,North
2020-07-16T04:09:59Z,1594872599,2020,4,10,198.1736,198.1736,78.57831,1.30032,-999.00,-999.00,-999.0,no,no,no,300534060558640,NOMAD,AWI/USIABP,MOSAiC,North
2020-07-16T04:20:03Z,1594873204,2020,4,20,198.1806,198.1806,78.57649,1.30426,-999.00,-999.00,-999.0,no,no,no,300534060558640,NOMAD,AWI/USIABP,MOSAiC,North
2020-07-16T04:30:00Z,1594873800,2020,4,30,198.1875,198.1875,78.57451,1.30816,-999.00,-999.00,-999.0,no,no,no,300534060558640,NOMAD,AWI/USIABP,MOSAiC,North
2020-07-16T04:39:56Z,1594874396,2020,4,40,198.1944,198.1944,78.57243,1.31227,-999.00,-999.00,-999.0,no,no,no,300534060558640,NOMAD,AWI/USIABP,MOSAiC,North
2020-07-16T04:50:00Z,1594875001,2020,4,50,198.2014,198.2014,78.5703,1.31672,-999.00,-999.00,-999.0,no,no,no,300534060558640,NOMAD,AWI/USIABP,MOSAiC,North
2020-07-16T04:59:57Z,1594875597,2020,5,0,198.2083,198.2083,78.56819,1.32054,-999.00,-999.00,-999.0,no,no,no,300534060558640,NOMAD,AWI/USIABP,MOSAiC,North
2020-07-16T05:10:01Z,1594876202,2020,5,10,198.2153,198.2153,78.56622,1.32493,-999.00,-999.00,-999.0,no,no,no,300534060558640,NOMAD,AWI/USIABP,MOSAiC,North
2020-07-16T05:19:58Z,1594876798,2020,5,20,198.2222,198.2222,78.56441,1.33022,-999.00,-999.00,-999.0,no,no,no,300534060558640,NOMAD,AWI/USIABP,MOSAiC,North
2020-07-16T05:30:02Z,1594877403,2020,5,30,198.2292,198.2292,78.56241,1.33477,-999.00,-999.00,-999.0,no,no,no,300534060558640,NOMAD,AWI/USIABP,MOSAiC,North
2020-07-16T05:39:59Z,1594877999,2020,5,40,198.2361,198.2361,78.5604,1.33923,-999.00,-999.00,-999.0,no,no,no,300534060558640,NOMAD,AWI/USIABP,MOSAiC,North
2020-07-16T05:50:03Z,1594878604,2020,5,50,198.2431,198.2431,78.55848,1.34421,-999.00,-999.00,-999.0,no,no,no,300534060558640,NOMAD,AWI/USIABP,MOSAiC,North
2020-07-16T06:00:00Z,1594879200,2020,6,0,198.25,198.25,78.55684,1.34956,-999.00,-999.00,-999.0,no,no,no,300534060558640,NOMAD,AWI/USIABP,MOSAiC,North
2020-07-16T06:09:56Z,1594879796,2020,6,10,198.2569,198.2569,78.55517,1.35466,-999.00,-999.00,-999.0,no,no,no,300534060558640,NOMAD,AWI/USIABP,MOSAiC,North
2020-07-16T06:20:00Z,1594880401,2020,6,20,198.2639,198.2639,78.5535,1.36015,-999.00,-999.00,-999.0,no,no,no,300534060558640,NOMAD,AWI/USIABP,MOSAiC,North
2020-07-16T06:29:57Z,1594880997,2020,6,30,198.2708,198.2708,78.55195,1.36603,-999.00,-999.00,-999.0,no,no,no,300534060558640,NOMAD,AWI/USIABP,MOSAiC,North
2020-07-16T06:40:01Z,1594881602,2020,6,40,198.2778,198.2778,78.55063,1.3719,-999.00,-999.00,-999.0,no,no,no,300534060558640,NOMAD,AWI/USIABP,MOSAiC,North
2020-07-16T06:49:58Z,1594882198,2020,6,50,198.2847,198.2847,78.54919,1.37786,-999.00,-999.00,-999.0,no,no,no,300534060558640,NOMAD,AWI/USIABP,MOSAiC,North
2020-07-16T07:00:02Z,1594882803,2020,7,0,198.2917,198.2917,78.54771,1.38358,-999.00,-999.00,-999.0,no,no,no,300534060558640,NOMAD,AWI/USIABP,MOSAiC,North
2020-07-16T07:09:59Z,1594883399,2020,7,10,198.2986,198.2986,78.5462,1.38969,-999.00,-999.00,-999.0,no,no,no,300534060558640,NOMAD,AWI/USIABP,MOSAiC,North
2020-07-16T07:20:03Z,1594884004,2020,7,20,198.3056,198.3056,78.54468,1.39594,-999.00,-999.00,-999.0,no,no,no,300534060558640,NOMAD,AWI/USIABP,MOSAiC,North
2020-07-16T07:30:00Z,1594884600,2020,7,30,198.3125,198.3125,78.54327,1.40259,-999.00,-999.00,-999.0,no,no,no,300534060558640,NOMAD,AWI/USIABP,MOSAiC,North
2020-07-16T07:39:56Z,1594885196,2020,7,40,198.3194,198.3194,78.54186,1.40883,-999.00,-999.00,-999.0,no,no,no,300534060558640,NOMAD,AWI/USIABP,MOSAiC,North
2020-07-16T07:50:00Z,1594885801,2020,7,50,198.3264,198.3264,78.54029,1.4149,-999.00,-999.00,-999.0,no,no,no,300534060558640,NOMAD,AWI/USIABP,MOSAiC,North
2020-07-16T07:59:57Z,1594886397,2020,8,0,198.3333,198.3333,78.53865,1.42088,-999.00,-999.00,-999.0,no,no,no,300534060558640,NOMAD,AWI/USIABP,MOSAiC,North
2020-07-16T08:10:01Z,1594887002,2020,8,10,198.3403,198.3403,78.53709,1.42717,-999.00,-999.00,-999.0,no,no,no,300534060558640,NOMAD,AWI/USIABP,MOSAiC,North
2020-07-16T08:19:58Z,1594887598,2020,8,20,198.3472,198.3472,78.53572,1.43404,-999.00,-999.00,-999.0,no,no,no,300534060558640,NOMAD,AWI/USIABP,MOSAiC,North
2020-07-16T08:30:02Z,1594888203,2020,8,30,198.3542,198.3542,78.53443,1.44089,-999.00,-999.00,-999.0,no,no,no,300534060558640,NOMAD,AWI/USIABP,MOSAiC,North
2020-07-16T08:39:59Z,1594888799,2020,8,40,198.3611,198.3611,78.53324,1.44858,-999.00,-999.00,-999.0,no,no,no,300534060558640,NOMAD,AWI/USIABP,MOSAiC,North
2020-07-16T08:50:03Z,1594889404,2020,8,50,198.3681,198.3681,78.53196,1.45589,-999.00,-999.00,-999.0,no,no,no,300534060558640,NOMAD,AWI/USIABP,MOSAiC,North
2020-07-16T09:00:00Z,1594890000,2020,9,0,198.375,198.375,78.53054,1.46282,-999.00,-999.00,-999.0,no,no,no,300534060558640,NOMAD,AWI/USIABP,MOSAiC,North
2020-07-16T09:09:56Z,1594890596,2020,9,10,198.3819,198.3819,78.52905,1.46948,-999.00,-999.00,-999.0,no,no,no,300534060558640,NOMAD,AWI/USIABP,MOSAiC,North
2020-07-16T09:20:00Z,1594891201,2020,9,20,198.3889,198.3889,78.52765,1.47698,-999.00,-999.00,-999.0,no,no,no,300534060558640,NOMAD,AWI/USIABP,MOSAiC,North
2020-07-16T09:29:57Z,1594891797,2020,9,30,198.3958,198.3958,78.52627,1.48482,-999.00,-999.00,-999.0,no,no,no,300534060558640,NOMAD,AWI/USIABP,MOSAiC,North
2020-07-16T09:40:01Z,1594892402,2020,9,40,198.4028,198.4028,78.5249,1.49263,-999.00,-999.00,-999.0,no,no,no,300534060558640,NOMAD,AWI/USIABP,MOSAiC,North
2020-07-16T09:49:58Z,1594892998,2020,9,50,198.4097,198.4097,78.52349,1.50066,-999.00,-999.00,-999.0,no,no,no,300534060558640,NOMAD,AWI/USIABP,MOSAiC,North
2020-07-16T10:00:02Z,1594893603,2020,10,0,198.4167,198.4167,78.52213,1.50904,-999.00,-999.00,-999.0,no,no,no,300534060558640,NOMAD,AWI/USIABP,MOSAiC,North
2020-07-16T10:09:59Z,1594894199,2020,10,10,198.4236,198.4236,78.52061,1.51667,-999.00,-999.00,-999.0,no,no,no,300534060558640,NOMAD,AWI/USIABP,MOSAiC,North
2020-07-16T10:20:03Z,1594894804,2020,10,20,198.4306,198.4306,78.51917,1.52444,-999.00,-999.00,-999.0,no,no,no,300534060558640,NOMAD,AWI/USIABP,MOSAiC,North
2020-07-16T10:30:00Z,1594895400,2020,10,30,198.4375,198.4375,78.51768,1.53202,-999.00,-999.00,-999.0,no,no,no,300534060558640,NOMAD,AWI/USIABP,MOSAiC,North
2020-07-16T10:39:56Z,1594895996,2020,10,40,198.4444,198.4444,78.51611,1.5397,-999.00,-999.00,-999.0,no,no,no,300534060558640,NOMAD,AWI/USIABP,MOSAiC,North
2020-07-16T10:50:00Z,1594896601,2020,10,50,198.4514,198.4514,78.51441,1.54746,-999.00,-999.00,-999.0,no,no,no,300534060558640,NOMAD,AWI/USIABP,MOSAiC,North
2020-07-16T10:59:57Z,1594897197,2020,11,0,198.4583,198.4583,78.51259,1.55472,-999.00,-999.00,-999.0,no,no,no,300534060558640,NOMAD,AWI/USIABP,MOSAiC,North
2020-07-16T11:10:01Z,1594897802,2020,11,10,198.4653,198.4653,78.5108,1.56218,-999.00,-999.00,-999.0,no,no,no,300534060558640,NOMAD,AWI/USIABP,MOSAiC,North
2020-07-16T11:19:58Z,1594898398,2020,11,20,198.4722,198.4722,78.50905,1.57005,-999.00,-999.00,-999.0,no,no,no,300534060558640,NOMAD,AWI/USIABP,MOSAiC,North
2020-07-16T11:30:02Z,1594899003,2020,11,30,198.4792,198.4792,78.50728,1.57767,-999.00,-999.00,-999.0,no,no,no,300534060558640,NOMAD,AWI/USIABP,MOSAiC,North
2020-07-16T11:39:59Z,1594899599,2020,11,40,198.4861,198.4861,78.5056,1.58504,-999.00,-999.00,-999.0,no,no,no,300534060558640,NOMAD,AWI/USIABP,MOSAiC,North
2020-07-16T11:50:03Z,1594900204,2020,11,50,198.4931,198.4931,78.50394,1.59251,-999.00,-999.00,-999.0,no,no,no,300534060558640,NOMAD,AWI/USIABP,MOSAiC,North
2020-07-16T12:00:00Z,1594900800,2020,12,0,198.5,198.5,78.50225,1.59953,-999.00,-999.00,-999.0,no,no,no,300534060558640,NOMAD,AWI/USIABP,MOSAiC,North
2020-07-16T12:09:56Z,1594901396,2020,12,10,198.5069,198.5069,78.50051,1.60615,-999.00,-999.00,-999.0,no,no,no,300534060558640,NOMAD,AWI/USIABP,MOSAiC,North
2020-07-16T12:20:00Z,1594902001,2020,12,20,198.5139,198.5139,78.49853,1.61203,-999.00,-999.00,-999.0,no,no,no,300534060558640,NOMAD,AWI/USIABP,MOSAiC,North
2020-07-16T12:29:57Z,1594902597,2020,12,30,198.5208,198.5208,78.49669,1.61831,-999.00,-999.00,-999.0,no,no,no,300534060558640,NOMAD,AWI/USIABP,MOSAiC,North
2020-07-16T12:40:01Z,1594903202,2020,12,40,198.5278,198.5278,78.49497,1.62493,-999.00,-999.00,-999.0,no,no,no,300534060558640,NOMAD,AWI/USIABP,MOSAiC,North
2020-07-16T12:49:58Z,1594903798,2020,12,50,198.5347,198.5347,78.49332,1.63204,-999.00,-999.00,-999.0,no,no,no,300534060558640,NOMAD,AWI/USIABP,MOSAiC,North
2020-07-16T13:00:02Z,1594904403,2020,13,0,198.5417,198.5417,78.49153,1.63849,-999.00,-999.00,-999.0,no,no,no,300534060558640,NOMAD,AWI/USIABP,MOSAiC,North
2020-07-16T13:09:59Z,1594904999,2020,13,10,198.5486,198.5486,78.48979,1.64467,-999.00,-999.00,-999.0,no,no,no,300534060558640,NOMAD,AWI/USIABP,MOSAiC,North
2020-07-16T13:20:03Z,1594905604,2020,13,20,198.5556,198.5556,78.48816,1.65145,-999.00,-999.00,-999.0,no,no,no,300534060558640,NOMAD,AWI/USIABP,MOSAiC,North
2020-07-16T13:30:00Z,1594906200,2020,13,30,198.5625,198.5625,78.4866,1.65843,-999.00,-999.00,-999.0,no,no,no,300534060558640,NOMAD,AWI/USIABP,MOSAiC,North
2020-07-16T13:39:56Z,1594906796,2020,13,40,198.5694,198.5694,78.48515,1.66577,-999.00,-999.00,-999.0,no,no,no,300534060558640,NOMAD,AWI/USIABP,MOSAiC,North
2020-07-16T13:50:00Z,1594907401,2020,13,50,198.5764,198.5764,78.48382,1.6731,-999.00,-999.00,-999.0,no,no,no,300534060558640,NOMAD,AWI/USIABP,MOSAiC,North
2020-07-16T13:59:57Z,1594907997,2020,14,0,198.5833,198.5833,78.48248,1.68048,-999.00,-999.00,-999.0,no,no,no,300534060558640,NOMAD,AWI/USIABP,MOSAiC,North
2020-07-16T14:10:01Z,1594908602,2020,14,10,198.5903,198.5903,78.481,1.6875,-999.00,-999.00,-999.0,no,no,no,300534060558640,NOMAD,AWI/USIABP,MOSAiC,North
2020-07-16T14:19:58Z,1594909198,2020,14,20,198.5972,198.5972,78.4795,1.69482,-999.00,-999.00,-999.0,no,no,no,300534060558640,NOMAD,AWI/USIABP,MOSAiC,North
2020-07-16T14:30:02Z,1594909803,2020,14,30,198.6042,198.6042,78.47768,1.70177,-999.00,-999.00,-999.0,no,no,no,300534060558640,NOMAD,AWI/USIABP,MOSAiC,North
2020-07-16T14:39:59Z,1594910399,2020,14,40,198.6111,198.6111,78.47608,1.70963,-999.00,-999.00,-999.0,no,no,no,300534060558640,NOMAD,AWI/USIABP,MOSAiC,North
2020-07-16T14:50:03Z,1594911004,2020,14,50,198.6181,198.6181,78.47454,1.71763,-999.00,-999.00,-999.0,no,no,no,300534060558640,NOMAD,AWI/USIABP,MOSAiC,North
2020-07-16T15:00:00Z,1594911600,2020,15,0,198.625,198.625,78.47323,1.72602,-999.00,-999.00,-999.0,no,no,no,300534060558640,NOMAD,AWI/USIABP,MOSAiC,North
2020-07-16T15:09:56Z,1594912196,2020,15,10,198.6319,198.6319,78.47164,1.73367,-999.00,-999.00,-999.0,no,no,no,300534060558640,NOMAD,AWI/USIABP,MOSAiC,North
2020-07-16T15:20:00Z,1594912801,2020,15,20,198.6389,198.6389,78.46972,1.74048,-999.00,-999.00,-999.0,no,no,no,300534060558640,NOMAD,AWI/USIABP,MOSAiC,North
2020-07-16T15:29:57Z,1594913397,2020,15,30,198.6458,198.6458,78.46779,1.74706,-999.00,-999.00,-999.0,no,no,no,300534060558640,NOMAD,AWI/USIABP,MOSAiC,North
2020-07-16T15:40:01Z,1594914002,2020,15,40,198.6528,198.6528,78.46593,1.75381,-999.00,-999.00,-999.0,no,no,no,300534060558640,NOMAD,AWI/USIABP,MOSAiC,North
2020-07-16T15:49:58Z,1594914598,2020,15,50,198.6597,198.6597,78.46407,1.76056,-999.00,-999.00,-999.0,no,no,no,300534060558640,NOMAD,AWI/USIABP,MOSAiC,North
2020-07-16T16:00:02Z,1594915203,2020,16,0,198.6667,198.6667,78.46233,1.76749,-999.00,-999.00,-999.0,no,no,no,300534060558640,NOMAD,AWI/USIABP,MOSAiC,North
2020-07-16T16:09:59Z,1594915799,2020,16,10,198.6736,198.6736,78.46069,1.77441,-999.00,-999.00,-999.0,no,no,no,300534060558640,NOMAD,AWI/USIABP,MOSAiC,North
2020-07-16T16:20:03Z,1594916404,2020,16,20,198.6806,198.6806,78.4589,1.78134,-999.00,-999.00,-999.0,no,no,no,300534060558640,NOMAD,AWI/USIABP,MOSAiC,North
2020-07-16T16:30:00Z,1594917000,2020,16,30,198.6875,198.6875,78.45714,1.78732,-999.00,-999.00,-999.0,no,no,no,300534060558640,NOMAD,AWI/USIABP,MOSAiC,North
2020-07-16T16:39:56Z,1594917596,2020,16,40,198.6944,198.6944,78.45549,1.79326,-999.00,-999.00,-999.0,no,no,no,300534060558640,NOMAD,AWI/USIABP,MOSAiC,North
2020-07-16T16:50:00Z,1594918201,2020,16,50,198.7014,198.7014,78.45392,1.79957,-999.00,-999.00,-999.0,no,no,no,300534060558640,NOMAD,AWI/USIABP,MOSAiC,North
2020-07-16T16:59:57Z,1594918797,2020,17,0,198.7083,198.7083,78.45244,1.80616,-999.00,-999.00,-999.0,no,no,no,300534060558640,NOMAD,AWI/USIABP,MOSAiC,North
2020-07-16T17:10:01Z,1594919402,2020,17,10,198.7153,198.7153,78.45089,1.8115,-999.00,-999.00,-999.0,no,no,no,300534060558640,NOMAD,AWI/USIABP,MOSAiC,North
2020-07-16T17:19:58Z,1594919998,2020,17,20,198.7222,198.7222,78.44936,1.81737,-999.00,-999.00,-999.0,no,no,no,300534060558640,NOMAD,AWI/USIABP,MOSAiC,North
2020-07-16T17:30:02Z,1594920603,2020,17,30,198.7292,198.7292,78.44801,1.82344,-999.00,-999.00,-999.0,no,no,no,300534060558640,NOMAD,AWI/USIABP,MOSAiC,North
2020-07-16T17:39:59Z,1594921199,2020,17,40,198.7361,198.7361,78.44659,1.82966,-999.00,-999.00,-999.0,no,no,no,300534060558640,NOMAD,AWI/USIABP,MOSAiC,North
2020-07-16T17:50:03Z,1594921804,2020,17,50,198.7431,198.7431,78.44493,1.83468,-999.00,-999.00,-999.0,no,no,no,300534060558640,NOMAD,AWI/USIABP,MOSAiC,North
2020-07-16T18:00:00Z,1594922400,2020,18,0,198.75,198.75,78.44327,1.8385,-999.00,-999.00,-999.0,no,no,no,300534060558640,NOMAD,AWI/USIABP,MOSAiC,North
2020-07-16T18:09:56Z,1594922996,2020,18,10,198.7569,198.7569,78.44187,1.84434,-999.00,-999.00,-999.0,no,no,no,300534060558640,NOMAD,AWI/USIABP,MOSAiC,North
2020-07-16T18:20:00Z,1594923601,2020,18,20,198.7639,198.7639,78.44072,1.85078,-999.00,-999.00,-999.0,no,no,no,300534060558640,NOMAD,AWI/USIABP,MOSAiC,North
2020-07-16T18:29:57Z,1594924197,2020,18,30,198.7708,198.7708,78.43942,1.85632,-999.00,-999.00,-999.0,no,no,no,300534060558640,NOMAD,AWI/USIABP,MOSAiC,North
2020-07-16T18:40:01Z,1594924802,2020,18,40,198.7778,198.7778,78.43815,1.86213,-999.00,-999.00,-999.0,no,no,no,300534060558640,NOMAD,AWI/USIABP,MOSAiC,North
2020-07-16T18:49:58Z,1594925398,2020,18,50,198.7847,198.7847,78.43691,1.86793,-999.00,-999.00,-999.0,no,no,no,300534060558640,NOMAD,AWI/USIABP,MOSAiC,North
2020-07-16T19:00:02Z,1594926003,2020,19,0,198.7917,198.7917,78.43548,1.87328,-999.00,-999.00,-999.0,no,no,no,300534060558640,NOMAD,AWI/USIABP,MOSAiC,North
2020-07-16T19:09:59Z,1594926599,2020,19,10,198.7986,198.7986,78.4341,1.87977,-999.00,-999.00,-999.0,no,no,no,300534060558640,NOMAD,AWI/USIABP,MOSAiC,North
2020-07-16T19:20:03Z,1594927204,2020,19,20,198.8056,198.8056,78.43308,1.88579,-999.00,-999.00,-999.0,no,no,no,300534060558640,NOMAD,AWI/USIABP,MOSAiC,North
2020-07-16T19:30:00Z,1594927800,2020,19,30,198.8125,198.8125,78.43217,1.89162,-999.00,-999.00,-999.0,no,no,no,300534060558640,NOMAD,AWI/USIABP,MOSAiC,North
2020-07-16T19:39:56Z,1594928396,2020,19,40,198.8194,198.8194,78.43129,1.89578,-999.00,-999.00,-999.0,no,no,no,300534060558640,NOMAD,AWI/USIABP,MOSAiC,North
2020-07-16T19:50:00Z,1594929001,2020,19,50,198.8264,198.8264,78.43049,1.90113,-999.00,-999.00,-999.0,no,no,no,300534060558640,NOMAD,AWI/USIABP,MOSAiC,North
2020-07-16T19:59:57Z,1594929597,2020,20,0,198.8333,198.8333,78.42952,1.90644,-999.00,-999.00,-999.0,no,no,no,300534060558640,NOMAD,AWI/USIABP,MOSAiC,North
2020-07-16T20:10:01Z,1594930202,2020,20,10,198.8403,198.8403,78.42869,1.91174,-999.00,-999.00,-999.0,no,no,no,300534060558640,NOMAD,AWI/USIABP,MOSAiC,North
2020-07-16T20:19:58Z,1594930798,2020,20,20,198.8472,198.8472,78.42784,1.9173,-999.00,-999.00,-999.0,no,no,no,300534060558640,NOMAD,AWI/USIABP,MOSAiC,North
2020-07-16T20:30:02Z,1594931403,2020,20,30,198.8542,198.8542,78.42682,1.92316,-999.00,-999.00,-999.0,no,no,no,300534060558640,NOMAD,AWI/USIABP,MOSAiC,North
2020-07-16T20:39:59Z,1594931999,2020,20,40,198.8611,198.8611,78.42595,1.9291,-999.00,-999.00,-999.0,no,no,no,300534060558640,NOMAD,AWI/USIABP,MOSAiC,North
2020-07-16T20:50:03Z,1594932604,2020,20,50,198.8681,198.8681,78.42512,1.93527,-999.00,-999.00,-999.0,no,no,no,300534060558640,NOMAD,AWI/USIABP,MOSAiC,North
2020-07-16T21:00:00Z,1594933200,2020,21,0,198.875,198.875,78.42438,1.94218,-999.00,-999.00,-999.0,no,no,no,300534060558640,NOMAD,AWI/USIABP,MOSAiC,North
2020-07-16T21:09:56Z,1594933796,2020,21,10,198.8819,198.8819,78.42369,1.94893,-999.00,-999.00,-999.0,no,no,no,300534060558640,NOMAD,AWI/USIABP,MOSAiC,North
2020-07-16T21:20:00Z,1594934401,2020,21,20,198.8889,198.8889,78.42312,1.95635,-999.00,-999.00,-999.0,no,no,no,300534060558640,NOMAD,AWI/USIABP,MOSAiC,North
2020-07-16T21:29:57Z,1594934997,2020,21,30,198.8958,198.8958,78.42232,1.96337,-999.00,-999.00,-999.0,no,no,no,300534060558640,NOMAD,AWI/USIABP,MOSAiC,North
2020-07-16T21:40:01Z,1594935602,2020,21,40,198.9028,198.9028,78.42195,1.96973,-999.00,-999.00,-999.0,no,no,no,300534060558640,NOMAD,AWI/USIABP,MOSAiC,North
2020-07-16T21:49:58Z,1594936198,2020,21,50,198.9097,198.9097,78.42144,1.97681,-999.00,-999.00,-999.0,no,no,no,300534060558640,NOMAD,AWI/USIABP,MOSAiC,North
2020-07-16T22:00:02Z,1594936803,2020,22,0,198.9167,198.9167,78.42083,1.9832,-999.00,-999.00,-999.0,no,no,no,300534060558640,NOMAD,AWI/USIABP,MOSAiC,North
2020-07-16T22:09:59Z,1594937399,2020,22,10,198.9236,198.9236,78.42049,1.98993,-999.00,-999.00,-999.0,no,no,no,300534060558640,NOMAD,AWI/USIABP,MOSAiC,North
2020-07-16T22:20:03Z,1594938004,2020,22,20,198.9306,198.9306,78.41993,1.99606,-999.00,-999.00,-999.0,no,no,no,300534060558640,NOMAD,AWI/USIABP,MOSAiC,North
2020-07-16T22:30:00Z,1594938600,2020,22,30,198.9375,198.9375,78.41929,2.00341,-999.00,-999.00,-999.0,no,no,no,300534060558640,NOMAD,AWI/USIABP,MOSAiC,North
2020-07-16T22:39:56Z,1594939196,2020,22,40,198.9444,198.9444,78.41846,2.01037,-999.00,-999.00,-999.0,no,no,no,300534060558640,NOMAD,AWI/USIABP,MOSAiC,North
2020-07-16T22:50:00Z,1594939801,2020,22,50,198.9514,198.9514,78.4176,2.01728,-999.00,-999.00,-999.0,no,no,no,300534060558640,NOMAD,AWI/USIABP,MOSAiC,North
2020-07-16T22:59:57Z,1594940397,2020,23,0,198.9583,198.9583,78.41673,2.02402,-999.00,-999.00,-999.0,no,no,no,300534060558640,NOMAD,AWI/USIABP,MOSAiC,North
2020-07-16T23:10:01Z,1594941002,2020,23,10,198.9653,198.9653,78.41586,2.03011,-999.00,-999.00,-999.0,no,no,no,300534060558640,NOMAD,AWI/USIABP,MOSAiC,North
2020-07-16T23:19:58Z,1594941598,2020,23,20,198.9722,198.9722,78.41505,2.03704,-999.00,-999.00,-999.0,no,no,no,300534060558640,NOMAD,AWI/USIABP,MOSAiC,North
2020-07-16T23:30:02Z,1594942203,2020,23,30,198.9792,198.9792,78.41409,2.04289,-999.00,-999.00,-999.0,no,no,no,300534060558640,NOMAD,AWI/USIABP,MOSAiC,North
2020-07-16T23:39:59Z,1594942799,2020,23,40,198.9861,198.9861,78.41323,2.04914,-999.00,-999.00,-999.0,no,no,no,300534060558640,NOMAD,AWI/USIABP,MOSAiC,North
2020-07-16T23:50:03Z,1594943404,2020,23,50,198.9931,198.9931,78.41258,2.05415,-999.00,-999.00,-999.0,no,no,no,300534060558640,NOMAD,AWI/USIABP,MOSAiC,North
2020-07-17T00:00:00Z,1594944000,2020,0,0,199.0,199.0,78.41206,2.0603,-999.00,-999.00,-999.0,no,no,no,300534060558640,NOMAD,AWI/USIABP,MOSAiC,North
2020-07-17T00:09:56Z,1594944596,2020,0,10,199.0069,199.0069,78.41157,2.06615,-999.00,-999.00,-999.0,no,no,no,300534060558640,NOMAD,AWI/USIABP,MOSAiC,North
2020-07-17T00:20:00Z,1594945201,2020,0,20,199.0139,199.0139,78.411,2.0722,-999.00,-999.00,-999.0,no,no,no,300534060558640,NOMAD,AWI/USIABP,MOSAiC,North
2020-07-17T00:29:57Z,1594945797,2020,0,30,199.0208,199.0208,78.41056,2.07826,-999.00,-999.00,-999.0,no,no,no,300534060558640,NOMAD,AWI/USIABP,MOSAiC,North
2020-07-17T00:40:01Z,1594946402,2020,0,40,199.0278,199.0278,78.41009,2.08406,-999.00,-999.00,-999.0,no,no,no,300534060558640,NOMAD,AWI/USIABP,MOSAiC,North
2020-07-17T00:49:58Z,1594946998,2020,0,50,199.0347,199.0347,78.40954,2.08949,-999.00,-999.00,-999.0,no,no,no,300534060558640,NOMAD,AWI/USIABP,MOSAiC,North
2020-07-17T01:00:02Z,1594947603,2020,1,0,199.0417,199.0417,78.40907,2.09491,-999.00,-999.00,-999.0,no,no,no,300534060558640,NOMAD,AWI/USIABP,MOSAiC,North
2020-07-17T01:09:59Z,1594948199,2020,1,10,199.0486,199.0486,78.40841,2.09995,-999.00,-999.00,-999.0,no,no,no,300534060558640,NOMAD,AWI/USIABP,MOSAiC,North
2020-07-17T01:20:03Z,1594948804,2020,1,20,199.0556,199.0556,78.40784,2.1055,-999.00,-999.00,-999.0,no,no,no,300534060558640,NOMAD,AWI/USIABP,MOSAiC,North
2020-07-17T01:30:00Z,1594949400,2020,1,30,199.0625,199.0625,78.40719,2.11225,-999.00,-999.00,-999.0,no,no,no,300534060558640,NOMAD,AWI/USIABP,MOSAiC,North